User: anonymous   Login
Location: Unspecified
(0.0000°N, 0.0000°E)
Time: 12:39:37
(UTC+00:00)
Language:

USA 278 - Orbit

View from above orbital plane
View from above orbital plane
View from above satellite
View from above satellite

Ground track
Ground track

The orbit data is extracted from the following two-line orbital elements,

1 42941U 17056A   19100.81698107 0.00000000  00000-0  00000-0 0    03
2 42941  63.6494 105.8970 6975152 266.5628  18.4544  2.00604000    02
Epoch (UTC): 10 April 2019 19:36:27
Eccentricity: 0.6975152
inclination: 63.6494°
perigee height: 1655 km
apogee height: 38702 km
right ascension of ascending node: 105.8970°
argument of perigee: 266.5628°
revolutions per day: 2.00604000
mean anomaly at epoch: 18.4544°
orbit number at epoch: 0

The dashed part of the orbit path shows where the satellite is in the earth's shadow,  

DLR